When you browse on this site, cookies collect data to enhance your experience and personalize the content and advertising you see.
Visit our Privacy Policy to learn more. By continuing to use the site, you agree to this use of cookies and data.
  • In Österreich
  • Länderverzeichnis
  • Für 7 Tage
  • Wassertemperatur
  • Satellitenkarten
  • Wetterkarte
  • News
  • Widgets
  • user-avatar
    Anmelden

    Stündliche Wetter Sewan

    Heute, 23 April, Dienstag

    Zeit Temperatur Niederschläge Wind Luftdruck Luftfeuchtigkeit
    00:00 +1°C° 0.2 mm 2 m/S 640 mmHg 74%
    01:00 +1°C° 0.1 mm 2 m/S 640 mmHg 74%
    02:00 +2°C° 0.1 mm 1 m/S 640 mmHg 75%
    03:00 +2°C° 0.1 mm 1 m/S 640 mmHg 75%
    04:00 +2°C° 0.1 mm 1 m/S 641 mmHg 75%
    05:00 +2°C° 0.1 mm 1 m/S 641 mmHg 75%
    06:00 +2°C° 0.1 mm 1 m/S 642 mmHg 74%
    07:00 +3°C° 0.1 mm 1 m/S 642 mmHg 69%
    08:00 +5°C° 0.1 mm 1 m/S 642 mmHg 63%
    09:00 +6°C° 0.1 mm 1 m/S 642 mmHg 58%
    10:00 +7°C° 0.1 mm 1 m/S 643 mmHg 56%
    11:00 +7°C° 0.1 mm 1 m/S 643 mmHg 54%
    12:00 +7°C° 0.1 mm 2 m/S 643 mmHg 53%
    13:00 +7°C° 0.1 mm 2 m/S 643 mmHg 53%
    14:00 +9°C° 0.1 mm 1 m/S 643 mmHg 53%
    15:00 +9°C° 0.1 mm 1 m/S 643 mmHg 53%
    16:00 +9°C° 0.2 mm 1 m/S 643 mmHg 55%
    17:00 +8°C° 0.2 mm 1 m/S 643 mmHg 58%
    18:00 +8°C° 0.2 mm 1 m/S 643 mmHg 60%
    19:00 +7°C° 0.1 mm 1 m/S 643 mmHg 64%
    20:00 +6°C° 0.1 mm 1 m/S 644 mmHg 67%
    21:00 +5°C° 0.1 mm 1 m/S 644 mmHg 70%
    22:00 +5°C° 0.1 mm 1 m/S 644 mmHg 71%
    23:00 +4°C° 0.1 mm 1 m/S 645 mmHg 73%

    Morgen, 24 April, Mittwoch

    Zeit Temperatur Niederschläge Wind Luftdruck Luftfeuchtigkeit
    00:00 +4°C° 0.1 mm 1 m/S 645 mmHg 74%
    01:00 +3°C° 0 mm 1 m/S 645 mmHg 75%
    02:00 +3°C° 0 mm 1 m/S 645 mmHg 77%
    03:00 +3°C° 0 mm 1 m/S 645 mmHg 78%
    04:00 +3°C° 0 mm 1 m/S 645 mmHg 78%
    05:00 +3°C° 0 mm 1 m/S 646 mmHg 77%
    06:00 +3°C° 0 mm 1 m/S 646 mmHg 77%
    07:00 +4°C° 0 mm 1 m/S 646 mmHg 71%
    08:00 +6°C° 0 mm 1 m/S 646 mmHg 64%
    09:00 +6°C° 0 mm 2 m/S 646 mmHg 58%
    10:00 +7°C° 0.1 mm 2 m/S 646 mmHg 56%
    11:00 +7°C° 0.1 mm 2 m/S 646 mmHg 54%
    12:00 +8°C° 0.1 mm 2 m/S 645 mmHg 52%
    13:00 +9°C° 0.1 mm 2 m/S 645 mmHg 51%
    14:00 +9°C° 0.1 mm 2 m/S 645 mmHg 50%
    15:00 +9°C° 0.1 mm 2 m/S 644 mmHg 50%
    16:00 +9°C° 0.1 mm 2 m/S 644 mmHg 52%
    17:00 +9°C° 0.1 mm 1 m/S 644 mmHg 54%
    18:00 +9°C° 0.1 mm 1 m/S 644 mmHg 56%
    19:00 +8°C° 0.1 mm 1 m/S 644 mmHg 60%
    20:00 +6°C° 0.1 mm 2 m/S 644 mmHg 63%
    21:00 +5°C° 0.1 mm 2 m/S 644 mmHg 67%
    22:00 +5°C° 0.2 mm 2 m/S 644 mmHg 69%
    23:00 +6°C° 0.2 mm 1 m/S 645 mmHg 71%

    übermorgen, 25 April, Donnerstag

    Zeit Temperatur Niederschläge Wind Luftdruck Luftfeuchtigkeit
    00:00 +5°C° 0.2 mm 1 m/S 645 mmHg 73%
    01:00 +5°C° 0.3 mm 1 m/S 645 mmHg 74%
    02:00 +5°C° 0.3 mm 1 m/S 645 mmHg 74%
    03:00 +5°C° 0.3 mm 1 m/S 645 mmHg 75%
    04:00 +5°C° 0.2 mm 1 m/S 645 mmHg 75%
    05:00 +5°C° 0.2 mm 1 m/S 645 mmHg 75%
    06:00 +4°C° 0.2 mm 1 m/S 645 mmHg 75%
    07:00 +6°C° 0.1 mm 1 m/S 645 mmHg 70%
    08:00 +7°C° 0.1 mm 1 m/S 645 mmHg 64%
    09:00 +8°C° 0.1 mm 1 m/S 645 mmHg 59%
    10:00 +9°C° 0 mm 1 m/S 645 mmHg 56%
    11:00 +10°C° 0 mm 1 m/S 645 mmHg 53%
    12:00 +10°C° 0 mm 1 m/S 645 mmHg 50%
    13:00 +11°C° 0 mm 1 m/S 645 mmHg 50%
    14:00 +11°C° 0 mm 1 m/S 645 mmHg 49%
    15:00 +12°C° 0 mm 1 m/S 644 mmHg 48%
    16:00 +11°C° 0 mm 1 m/S 644 mmHg 51%
    17:00 +10°C° 0 mm 1 m/S 644 mmHg 53%
    18:00 +10°C° 0 mm 1 m/S 644 mmHg 55%
    19:00 +7°C° 0 mm 2 m/S 644 mmHg 59%
    20:00 +6°C° 0 mm 2 m/S 644 mmHg 63%
    21:00 +5°C° 0 mm 2 m/S 644 mmHg 67%
    22:00 +4°C° 0 mm 2 m/S 644 mmHg 68%
    23:00 +4°C° 0 mm 2 m/S 644 mmHg 69%

    26 April, Freitag

    Zeit Temperatur Niederschläge Wind Luftdruck Luftfeuchtigkeit
    00:00 +3°C° 0 mm 2 m/S 644 mmHg 70%
    01:00 +3°C° 0 mm 2 m/S 644 mmHg 69%
    02:00 +3°C° 0 mm 2 m/S 644 mmHg 69%
    03:00 +2°C° 0 mm 2 m/S 644 mmHg 69%
    04:00 +3°C° 0 mm 2 m/S 644 mmHg 68%
    05:00 +3°C° 0 mm 2 m/S 644 mmHg 67%
    06:00 +3°C° 0 mm 2 m/S 644 mmHg 66%
    07:00 +5°C° 0 mm 2 m/S 644 mmHg 59%
    08:00 +7°C° 0 mm 1 m/S 645 mmHg 52%
    09:00 +9°C° 0 mm 1 m/S 645 mmHg 46%
    10:00 +10°C° 0 mm 1 m/S 645 mmHg 44%
    11:00 +11°C° 0 mm 1 m/S 645 mmHg 42%
    12:00 +12°C° 0 mm 1 m/S 645 mmHg 40%
    13:00 +12°C° 0 mm 1 m/S 644 mmHg 41%
    14:00 +13°C° 0 mm 1 m/S 644 mmHg 42%
    15:00 +13°C° 0 mm 1 m/S 644 mmHg 43%
    16:00 +12°C° 0 mm 1 m/S 644 mmHg 46%
    17:00 +12°C° 0 mm 1 m/S 644 mmHg 49%
    18:00 +11°C° 0 mm 1 m/S 643 mmHg 52%
    19:00 +9°C° 0 mm 2 m/S 644 mmHg 58%
    20:00 +7°C° 0 mm 2 m/S 644 mmHg 64%
    21:00 +6°C° 0 mm 2 m/S 644 mmHg 69%
    22:00 +6°C° 0 mm 2 m/S 644 mmHg 72%
    23:00 +5°C° 0 mm 2 m/S 644 mmHg 74%

    27 April, Samstag

    Zeit Temperatur Niederschläge Wind Luftdruck Luftfeuchtigkeit
    00:00 +5°C° 0 mm 2 m/S 644 mmHg 77%
    01:00 +5°C° 0 mm 2 m/S 644 mmHg 78%
    02:00 +5°C° 0 mm 2 m/S 644 mmHg 79%
    03:00 +4°C° 0 mm 2 m/S 644 mmHg 80%
    04:00 +4°C° 0 mm 2 m/S 644 mmHg 79%
    05:00 +4°C° 0 mm 2 m/S 644 mmHg 78%
    06:00 +5°C° 0 mm 2 m/S 645 mmHg 76%
    07:00 +6°C° 0 mm 2 m/S 645 mmHg 69%
    08:00 +9°C° 0 mm 1 m/S 645 mmHg 61%
    09:00 +10°C° 0 mm 1 m/S 645 mmHg 53%
    10:00 +11°C° 0 mm 1 m/S 645 mmHg 50%
    11:00 +12°C° 0 mm 2 m/S 645 mmHg 48%
    12:00 +13°C° 0 mm 2 m/S 645 mmHg 46%
    13:00 +13°C° 0 mm 2 m/S 645 mmHg 45%
    14:00 +14°C° 0 mm 2 m/S 644 mmHg 45%
    15:00 +14°C° 0 mm 2 m/S 644 mmHg 44%
    16:00 +13°C° 0 mm 2 m/S 644 mmHg 46%
    17:00 +13°C° 0 mm 2 m/S 644 mmHg 49%
    18:00 +12°C° 0 mm 1 m/S 644 mmHg 51%
    19:00 +10°C° 0 mm 2 m/S 644 mmHg 58%
    20:00 +8°C° 0 mm 2 m/S 644 mmHg 65%
    21:00 +7°C° 0 mm 3 m/S 644 mmHg 71%
    22:00 +5°C° 0 mm 3 m/S 644 mmHg 73%
    23:00 +6°C° 0 mm 2 m/S 644 mmHg 75%

    28 April, Sonntag

    Zeit Temperatur Niederschläge Wind Luftdruck Luftfeuchtigkeit
    00:00 +5°C° 0 mm 2 m/S 644 mmHg 77%
    01:00 +5°C° 0 mm 2 m/S 643 mmHg 77%
    02:00 +5°C° 0 mm 2 m/S 643 mmHg 77%
    03:00 +5°C° 0 mm 2 m/S 643 mmHg 76%
    04:00 +5°C° 0 mm 2 m/S 643 mmHg 74%
    05:00 +6°C° 0 mm 1 m/S 643 mmHg 73%
    06:00 +6°C° 0 mm 1 m/S 643 mmHg 71%
    07:00 +8°C° 0 mm 1 m/S 643 mmHg 64%
    08:00 +9°C° 0 mm 2 m/S 643 mmHg 58%
    09:00 +10°C° 0 mm 2 m/S 643 mmHg 51%
    10:00 +12°C° 0 mm 2 m/S 643 mmHg 49%
    11:00 +13°C° 0 mm 2 m/S 642 mmHg 47%
    12:00 +14°C° 0 mm 2 m/S 642 mmHg 44%
    13:00 +15°C° 0 mm 2 m/S 642 mmHg 43%
    14:00 +15°C° 0 mm 2 m/S 642 mmHg 42%
    15:00 +15°C° 0 mm 2 m/S 641 mmHg 41%
    16:00 +15°C° 0 mm 2 m/S 641 mmHg 43%
    17:00 +14°C° 0 mm 1 m/S 641 mmHg 44%
    18:00 +13°C° 0 mm 1 m/S 641 mmHg 46%
    19:00 +12°C° 0.1 mm 1 m/S 641 mmHg 48%
    20:00 +11°C° 0.1 mm 1 m/S 641 mmHg 50%
    21:00 +9°C° 0.1 mm 1 m/S 641 mmHg 52%
    22:00 +9°C° 0.1 mm 1 m/S 641 mmHg 53%
    23:00 +9°C° 0.1 mm 1 m/S 641 mmHg 55%
    Mehr zeigen